| time (UTC) | temp F | wind direction | speed MPH | gust MPH | rain 1hr in | rain 24hr in | rain mn in | humidity % | barometer mb |
| 20260902065245 | 76 | 0 | 0.0 | 0.0 | 0.00 | 0.00 | 0.00 | 80 | 1037.6 |
| 20260902064740 | 76 | 0 | 0.0 | 0.0 | 0.00 | 0.00 | 0.00 | 80 | 1037.7 |
| 20260902064236 | 77 | 0 | 0.0 | 0.0 | 0.00 | 0.00 | 0.00 | 81 | 1037.6 |
| 20260902063732 | 77 | 348 | 0.0 | 1.0 | 0.00 | 0.00 | 0.00 | 81 | 1037.6 |
| 20260902063232 | 77 | 354 | 0.0 | 2.0 | 0.00 | 0.00 | 0.00 | 81 | 1037.8 |
| 20260902062725 | 77 | 0 | 0.0 | 1.0 | 0.00 | 0.00 | 0.00 | 81 | 1037.7 |
| 20260902062221 | 77 | 353 | 0.0 | 1.0 | 0.00 | 0.00 | 0.00 | 81 | 1037.9 |
| 20260902061719 | 77 | 345 | 0.0 | 1.0 | 0.00 | 0.00 | 0.00 | 82 | 1037.7 |
| 20260902061215 | 77 | 345 | 0.0 | 1.0 | 0.00 | 0.00 | 0.00 | 82 | 1037.9 |
| 20260902060712 | 77 | 345 | 0.0 | 2.0 | 0.00 | 0.00 | 0.00 | 82 | 1037.9 |
| 20260902060208 | 77 | 352 | 0.0 | 2.0 | 0.00 | 0.00 | 0.00 | 82 | 1038.1 |
| 20260902055703 | 77 | 0 | 1.0 | 2.0 | 0.00 | 0.00 | 0.00 | 81 | 1038.0 |
| 20260902055159 | 77 | 349 | 2.0 | 2.0 | 0.00 | 0.00 | 0.00 | 81 | 1037.8 |
| 20260902054654 | 77 | 352 | 2.0 | 3.0 | 0.00 | 0.00 | 0.00 | 81 | 1037.8 |
| 20260902054150 | 77 | 342 | 2.0 | 3.0 | 0.00 | 0.00 | 0.00 | 81 | 1037.9 |
| 20260902053645 | 77 | 326 | 2.0 | 3.0 | 0.00 | 0.00 | 0.00 | 82 | 1038.0 |
| 20260902053145 | 77 | 341 | 2.0 | 3.0 | 0.00 | 0.00 | 0.00 | 83 | 1037.9 |
| 20260902052644 | 77 | 342 | 1.0 | 3.0 | 0.00 | 0.00 | 0.00 | 81 | 1038.0 |
| 20260902052140 | 78 | 355 | 2.0 | 2.0 | 0.00 | 0.00 | 0.00 | 79 | 1037.7 |
| 20260902051639 | 78 | 0 | 1.0 | 2.0 | 0.00 | 0.00 | 0.00 | 79 | 1037.7 |
| 20260902051133 | 78 | 348 | 1.0 | 2.0 | 0.00 | 0.00 | 0.00 | 81 | 1038.0 |
| 20260902050628 | 78 | 345 | 0.0 | 0.0 | 0.00 | 0.00 | 0.00 | 81 | 1037.7 |
| 20260902050123 | 77 | 0 | 1.0 | 2.0 | 0.00 | 0.00 | 0.00 | 82 | 1037.8 |
| 20260902045618 | 77 | 345 | 1.0 | 2.0 | 0.00 | 0.00 | 0.00 | 83 | 1037.8 |
| 20260902045114 | 77 | 348 | 0.0 | 2.0 | 0.00 | 0.00 | 0.00 | 84 | 1037.8 |
| 20260902044609 | 77 | 353 | 0.0 | 2.0 | 0.00 | 0.00 | 0.00 | 83 | 1037.6 |
| 20260902044104 | 77 | 0 | 1.0 | 2.0 | 0.00 | 0.00 | 0.00 | 83 | 1037.6 |
| 20260902043559 | 77 | 354 | 0.0 | 1.0 | 0.00 | 0.00 | 0.00 | 83 | 1037.8 |
| 20260902043054 | 77 | 0 | 1.0 | 2.0 | 0.00 | 0.00 | 0.00 | 85 | 1037.8 |
| 20260902042554 | 77 | 345 | 2.0 | 2.0 | 0.00 | 0.00 | 0.00 | 85 | 1037.9 |
| 20260902042050 | 77 | 354 | 1.0 | 2.0 | 0.00 | 0.00 | 0.00 | 84 | 1037.7 |
| 20260902041549 | 78 | 349 | 0.0 | 2.0 | 0.00 | 0.00 | 0.00 | 83 | 1037.6 |
| 20260902041044 | 78 | 0 | 1.0 | 1.0 | 0.00 | 0.00 | 0.00 | 82 | 1037.7 |
| 20260902040544 | 78 | 352 | 0.0 | 1.0 | 0.00 | 0.00 | 0.00 | 83 | 1037.9 |
| 20260902040038 | 78 | 352 | 0.0 | 1.0 | 0.00 | 0.00 | 0.00 | 82 | 1037.6 |
| 20260902035531 | 78 | 0 | 1.0 | 2.0 | 0.00 | 0.00 | 0.00 | 81 | 1037.6 |
| 20260902035027 | 78 | 0 | 1.0 | 2.0 | 0.00 | 0.00 | 0.00 | 81 | 1037.3 |
| 20260902034526 | 79 | 355 | 2.0 | 2.0 | 0.00 | 0.00 | 0.00 | 80 | 1037.4 |
| 20260902034025 | 79 | 0 | 0.0 | 0.0 | 0.00 | 0.00 | 0.00 | 78 | 1037.6 |
| 20260902033525 | 79 | 0 | 0.0 | 0.0 | 0.00 | 0.00 | 0.00 | 78 | 1037.6 |
| 20260902033020 | 80 | 0 | 0.0 | 0.0 | 0.00 | 0.00 | 0.00 | 78 | 1037.6 |
| 20260902032513 | 80 | 352 | 0.0 | 0.0 | 0.00 | 0.00 | 0.00 | 77 | 1037.6 |
| 20260902032008 | 80 | 352 | 0.0 | 0.0 | 0.00 | 0.00 | 0.00 | 77 | 1037.5 |
| 20260902031503 | 80 | 352 | 0.0 | 0.0 | 0.00 | 0.00 | 0.00 | 77 | 1037.6 |
| 20260902030959 | 80 | 352 | 0.0 | 0.0 | 0.00 | 0.00 | 0.00 | 77 | 1037.6 |
| 20260902030454 | 80 | 352 | 0.0 | 0.0 | 0.00 | 0.00 | 0.00 | 76 | 1037.5 |
| 20260902025952 | 80 | 0 | 0.0 | 2.0 | 0.00 | 0.00 | 0.00 | 76 | 1037.4 |
| 20260902025448 | 81 | 337 | 0.0 | 1.0 | 0.00 | 0.00 | 0.00 | 75 | 1037.4 |
| 20260902024943 | 80 | 354 | 1.0 | 1.0 | 0.00 | 0.00 | 0.00 | 75 | 1037.7 |
| 20260902024438 | 81 | 352 | 0.0 | 1.0 | 0.00 | 0.00 | 0.00 | 75 | 1037.6 |
| 20260902023933 | 81 | 353 | 1.0 | 1.0 | 0.00 | 0.00 | 0.00 | 76 | 1037.5 |
| 20260902023429 | 81 | 345 | 0.0 | 1.0 | 0.00 | 0.00 | 0.00 | 76 | 1037.4 |
| 20260902022928 | 81 | 352 | 1.0 | 1.0 | 0.00 | 0.00 | 0.00 | 77 | 1037.5 |
| 20260902022423 | 81 | 352 | 1.0 | 1.0 | 0.00 | 0.00 | 0.00 | 76 | 1037.5 |
| 20260902021919 | 81 | 348 | 0.0 | 1.0 | 0.00 | 0.00 | 0.00 | 76 | 1037.3 |
| 20260902021419 | 81 | 346 | 0.0 | 1.0 | 0.00 | 0.00 | 0.00 | 76 | 1037.2 |
| 20260902020915 | 81 | 340 | 0.0 | 0.0 | 0.00 | 0.00 | 0.00 | 76 | 1037.5 |
| 20260902020411 | 81 | 346 | 0.0 | 1.0 | 0.00 | 0.00 | 0.00 | 77 | 1037.5 |
| 20260902015906 | 82 | 331 | 0.0 | 2.0 | 0.00 | 0.00 | 0.00 | 76 | 1037.5 |
| 20260902015401 | 82 | 331 | 0.0 | 1.0 | 0.00 | 0.00 | 0.00 | 75 | 1037.4 |
| 20260902014857 | 82 | 0 | 0.0 | 1.0 | 0.00 | 0.00 | 0.00 | 75 | 1037.4 |
| 20260902014354 | 83 | 348 | 1.0 | 2.0 | 0.00 | 0.00 | 0.00 | 74 | 1037.5 |
| 20260902013852 | 82 | 353 | 1.0 | 1.0 | 0.00 | 0.00 | 0.00 | 74 | 1037.6 |
| 20260902013348 | 82 | 0 | 0.0 | 1.0 | 0.00 | 0.00 | 0.00 | 75 | 1037.3 |
| 20260902012843 | 82 | 331 | 0.0 | 1.0 | 0.00 | 0.00 | 0.00 | 75 | 1037.4 |
| 20260902012339 | 83 | 353 | 1.0 | 1.0 | 0.00 | 0.00 | 0.00 | 75 | 1037.3 |
| 20260902011835 | 82 | 0 | 0.0 | 2.0 | 0.00 | 0.00 | 0.00 | 75 | 1037.2 |
| 20260902011329 | 82 | 346 | 1.0 | 1.0 | 0.00 | 0.00 | 0.00 | 75 | 1037.4 |
| 20260902010829 | 82 | 331 | 0.0 | 0.0 | 0.00 | 0.00 | 0.00 | 77 | 1037.2 |
| 20260902010324 | 82 | 331 | 0.0 | 1.0 | 0.00 | 0.00 | 0.00 | 75 | 1037.3 |
| 20260902005823 | 82 | 345 | 1.0 | 1.0 | 0.00 | 0.00 | 0.00 | 76 | 1037.0 |
| 20260902005317 | 82 | 345 | 1.0 | 2.0 | 0.00 | 0.00 | 0.00 | 77 | 1037.1 |
| 20260902004813 | 82 | 342 | 2.0 | 2.0 | 0.00 | 0.00 | 0.00 | 75 | 1037.0 |
| 20260902004308 | 84 | 351 | 2.0 | 2.0 | 0.00 | 0.00 | 0.00 | 74 | 1037.1 |
| 20260902003802 | 84 | 353 | 1.0 | 2.0 | 0.00 | 0.00 | 0.00 | 73 | 1037.0 |
| 20260902003257 | 83 | 346 | 1.0 | 2.0 | 0.00 | 0.00 | 0.00 | 73 | 1037.0 |
| 20260902002753 | 84 | 0 | 1.0 | 2.0 | 0.00 | 0.00 | 0.00 | 73 | 1037.0 |
| 20260902002252 | 84 | 346 | 1.0 | 2.0 | 0.00 | 0.00 | 0.00 | 72 | 1037.1 |
| 20260902001748 | 84 | 345 | 1.0 | 1.0 | 0.00 | 0.00 | 0.00 | 72 | 1037.0 |
| 20260902001243 | 84 | 355 | 0.0 | 2.0 | 0.00 | 0.00 | 0.00 | 72 | 1037.1 |
| 20260902000738 | 85 | 352 | 1.0 | 1.0 | 0.00 | 0.00 | 0.00 | 71 | 1037.2 |
| 20260902000233 | 85 | 0 | 1.0 | 1.0 | 0.00 | 0.00 | 0.00 | 71 | 1037.1 |
| 20260901235727 | 85 | 354 | 0.0 | 1.0 | 0.00 | 0.00 | 0.00 | 71 | 1037.2 |
| 20260901235222 | 85 | 0 | 1.0 | 2.0 | 0.00 | 0.00 | 0.00 | 71 | 1037.2 |
| 20260901234721 | 85 | 352 | 1.0 | 1.0 | 0.00 | 0.00 | 0.00 | 72 | 1037.1 |
| 20260901234222 | 85 | 0 | 1.0 | 1.0 | 0.00 | 0.00 | 0.00 | 73 | 1037.4 |
| 20260901233716 | 86 | 0 | 0.0 | 1.0 | 0.00 | 0.00 | 0.00 | 74 | 1037.2 |
| 20260901233213 | 87 | 7 | 1.0 | 1.0 | 0.00 | 0.00 | 0.00 | 72 | 1037.2 |
| 20260901232713 | 88 | 352 | 1.0 | 1.0 | 0.00 | 0.00 | 0.00 | 69 | 1037.3 |
| 20260901232208 | 89 | 0 | 0.0 | 0.0 | 0.00 | 0.00 | 0.00 | 66 | 1037.0 |
| 20260901231704 | 90 | 352 | 0.0 | 0.0 | 0.00 | 0.00 | 0.00 | 63 | 1037.3 |
| 20260901231201 | 90 | 352 | 0.0 | 0.0 | 0.00 | 0.00 | 0.00 | 60 | 1037.3 |
| 20260901230656 | 92 | 352 | 0.0 | 0.0 | 0.00 | 0.00 | 0.00 | 56 | 1037.4 |
| 20260901230155 | 93 | 352 | 0.0 | 0.0 | 0.00 | 0.00 | 0.00 | 53 | 1037.3 |
| 20260901225651 | 95 | 352 | 0.0 | 0.0 | 0.00 | 0.00 | 0.00 | 52 | 1037.5 |
| 20260901225145 | 95 | 352 | 0.0 | 0.0 | 0.00 | 0.00 | 0.00 | 51 | 1037.3 |
| 20260901224642 | 96 | 188 | 0.0 | 1.0 | 0.00 | 0.00 | 0.00 | 50 | 1037.2 |
| 20260901224138 | 95 | 168 | 0.0 | 1.0 | 0.00 | 0.00 | 0.00 | 51 | 1037.5 |
| 20260901223633 | 95 | 345 | 0.0 | 0.0 | 0.00 | 0.00 | 0.00 | 51 | 1037.3 |
| 20260901223128 | 96 | 215 | 0.0 | 2.0 | 0.00 | 0.00 | 0.00 | 51 | 1037.3 |
| 20260901222624 | 96 | 0 | 0.0 | 0.0 | 0.00 | 0.00 | 0.00 | 50 | 1037.2 |
| 20260901222120 | 96 | 8 | 0.0 | 1.0 | 0.00 | 0.00 | 0.00 | 50 | 1037.3 |
| 20260901221615 | 95 | 0 | 0.0 | 0.0 | 0.00 | 0.00 | 0.00 | 50 | 1037.5 |
| 20260901221111 | 96 | 195 | 0.0 | 0.0 | 0.00 | 0.00 | 0.00 | 49 | 1037.2 |
| 20260901220610 | 96 | 209 | 0.0 | 2.0 | 0.00 | 0.00 | 0.00 | 49 | 1037.2 |
| 20260901220109 | 96 | 0 | 0.0 | 2.0 | 0.00 | 0.00 | 0.00 | 51 | 1037.1 |
| 20260901215608 | 98 | 195 | 0.0 | 0.0 | 0.00 | 0.00 | 0.00 | 48 | 1037.2 |
| 20260901215102 | 96 | 5 | 0.0 | 2.0 | 0.00 | 0.00 | 0.00 | 49 | 1037.3 |
| 20260901214601 | 98 | 192 | 0.0 | 1.0 | 0.00 | 0.00 | 0.00 | 48 | 1037.3 |
| 20260901214101 | 98 | 354 | 0.0 | 2.0 | 0.00 | 0.00 | 0.00 | 48 | 1037.4 |
| 20260901213555 | 98 | 173 | 0.0 | 1.0 | 0.00 | 0.00 | 0.00 | 47 | 1037.4 |
| 20260901213049 | 96 | 175 | 2.0 | 2.0 | 0.00 | 0.00 | 0.00 | 50 | 1037.4 |
| 20260901212544 | 96 | 0 | 2.0 | 2.0 | 0.00 | 0.00 | 0.00 | 50 | 1037.4 |
| 20260901212040 | 96 | 339 | 2.0 | 2.0 | 0.00 | 0.00 | 0.00 | 50 | 1037.5 |
| 20260901211535 | 97 | 192 | 0.0 | 1.0 | 0.00 | 0.00 | 0.00 | 49 | 1037.4 |
| 20260901211032 | 95 | 342 | 2.0 | 2.0 | 0.00 | 0.00 | 0.00 | 49 | 1037.5 |
| 20260901210527 | 95 | 356 | 2.0 | 3.0 | 0.00 | 0.00 | 0.00 | 51 | 1037.4 |
| 20260901210023 | 95 | 356 | 0.0 | 2.0 | 0.00 | 0.00 | 0.00 | 48 | 1037.5 |
| 20260901205517 | 99 | 0 | 0.0 | 2.0 | 0.00 | 0.00 | 0.00 | 46 | 1037.5 |
| 20260901205012 | 98 | 234 | 0.0 | 2.0 | 0.00 | 0.00 | 0.00 | 48 | 1037.4 |
| 20260901204509 | 96 | 0 | 1.0 | 2.0 | 0.00 | 0.00 | 0.00 | 48 | 1037.5 |
| 20260901204003 | 96 | 0 | 2.0 | 3.0 | 0.00 | 0.00 | 0.00 | 49 | 1037.6 |
| 20260901203458 | 96 | 353 | 0.0 | 2.0 | 0.00 | 0.00 | 0.00 | 48 | 1037.6 |
| 20260901202953 | 98 | 0 | 1.0 | 2.0 | 0.00 | 0.00 | 0.00 | 47 | 1037.8 |
| 20260901202447 | 97 | 34 | 0.0 | 2.0 | 0.00 | 0.00 | 0.00 | 49 | 1038.0 |
| 20260901201943 | 97 | 158 | 2.0 | 2.0 | 0.00 | 0.00 | 0.00 | 50 | 1037.9 |
| 20260901201438 | 95 | 0 | 0.0 | 3.0 | 0.00 | 0.00 | 0.00 | 51 | 1037.7 |
| 20260901200937 | 96 | 355 | 2.0 | 2.0 | 0.00 | 0.00 | 0.00 | 51 | 1037.8 |
| 20260901200427 | 95 | 0 | 0.0 | 2.0 | 0.00 | 0.00 | 0.00 | 51 | 1037.8 |
| 20260901195926 | 97 | 354 | 0.0 | 3.0 | 0.00 | 0.00 | 0.00 | 49 | 1037.9 |
| 20260901195425 | 96 | 0 | 1.0 | 3.0 | 0.00 | 0.00 | 0.00 | 48 | 1037.8 |
| 20260901194920 | 97 | 0 | 0.0 | 3.0 | 0.00 | 0.00 | 0.00 | 51 | 1038.0 |
| 20260901194415 | 97 | 173 | 0.0 | 2.0 | 0.00 | 0.00 | 0.00 | 51 | 1037.9 |
| 20260901193911 | 95 | 187 | 1.0 | 2.0 | 0.00 | 0.00 | 0.00 | 53 | 1038.1 |
| 20260901193410 | 94 | 140 | 2.0 | 2.0 | 0.00 | 0.00 | 0.00 | 54 | 1038.2 |
| 20260901192910 | 93 | 151 | 1.0 | 2.0 | 0.00 | 0.00 | 0.00 | 56 | 1038.1 |
| 20260901192406 | 96 | 157 | 1.0 | 1.0 | 0.00 | 0.00 | 0.00 | 53 | 1038.0 |
| 20260901191902 | 98 | 203 | 0.0 | 0.0 | 0.00 | 0.00 | 0.00 | 51 | 1038.5 |
| 20260901191356 | 96 | 145 | 1.0 | 2.0 | 0.00 | 0.00 | 0.00 | 53 | 1038.4 |
| 20260901190853 | 96 | 246 | 0.0 | 1.0 | 0.00 | 0.00 | 0.00 | 52 | 1038.5 |
| 20260901190347 | 94 | 0 | 0.0 | 2.0 | 0.00 | 0.00 | 0.00 | 54 | 1038.5 |
| 20260901185845 | 94 | 337 | 0.0 | 4.0 | 0.00 | 0.00 | 0.00 | 53 | 1038.6 |
| 20260901185344 | 95 | 196 | 2.0 | 2.0 | 0.00 | 0.00 | 0.00 | 57 | 1038.7 |
| 20260901184841 | 93 | 337 | 0.0 | 1.0 | 0.00 | 0.00 | 0.00 | 55 | 1038.7 |
| 20260901184335 | 92 | 348 | 2.0 | 3.0 | 0.00 | 0.00 | 0.00 | 55 | 1038.7 |
| 20260901183831 | 92 | 37 | 2.0 | 3.0 | 0.00 | 0.00 | 0.00 | 57 | 1038.6 |
| 20260901183330 | 91 | 32 | 0.0 | 3.0 | 0.00 | 0.00 | 0.00 | 56 | 1038.8 |
| 20260901182826 | 91 | 334 | 1.0 | 4.0 | 0.00 | 0.00 | 0.00 | 56 | 1038.9 |
| 20260901182326 | 91 | 63 | 1.0 | 3.0 | 0.00 | 0.00 | 0.00 | 57 | 1039.1 |
| 20260901181821 | 91 | 32 | 0.0 | 0.0 | 0.00 | 0.00 | 0.00 | 59 | 1039.1 |
| 20260901181315 | 91 | 75 | 0.0 | 1.0 | 0.00 | 0.00 | 0.00 | 58 | 1038.9 |
| 20260901180809 | 90 | 114 | 1.0 | 1.0 | 0.00 | 0.00 | 0.00 | 61 | 1039.0 |
| 20260901180308 | 91 | 161 | 2.0 | 3.0 | 0.00 | 0.00 | 0.00 | 60 | 1039.3 |
| 20260901175807 | 89 | 195 | 0.0 | 2.0 | 0.00 | 0.00 | 0.00 | 60 | 1039.2 |
| 20260901175305 | 89 | 188 | 0.0 | 2.0 | 0.00 | 0.00 | 0.00 | 60 | 1039.1 |
| 20260901174757 | 88 | 180 | 0.0 | 2.0 | 0.00 | 0.00 | 0.00 | 63 | 1039.1 |
| 20260901174253 | 88 | 166 | 3.0 | 4.0 | 0.00 | 0.00 | 0.00 | 62 | 1039.4 |
| 20260901173748 | 89 | 160 | 3.0 | 3.0 | 0.00 | 0.00 | 0.00 | 62 | 1039.3 |
| 20260901173243 | 89 | 29 | 1.0 | 4.0 | 0.00 | 0.00 | 0.00 | 61 | 1039.3 |
| 20260901172740 | 87 | 5 | 0.0 | 3.0 | 0.00 | 0.00 | 0.00 | 61 | 1039.4 |
| 20260901172238 | 85 | 150 | 2.0 | 3.0 | 0.00 | 0.00 | 0.00 | 66 | 1039.4 |
| 20260901171737 | 85 | 186 | 1.0 | 2.0 | 0.00 | 0.00 | 0.00 | 67 | 1039.7 |
| 20260901171236 | 87 | 146 | 2.0 | 3.0 | 0.00 | 0.00 | 0.00 | 65 | 1039.5 |
| 20260901170735 | 88 | 154 | 0.0 | 1.0 | 0.00 | 0.00 | 0.00 | 65 | 1039.7 |
| 20260901170230 | 88 | 15 | 0.0 | 1.0 | 0.00 | 0.00 | 0.00 | 65 | 1039.9 |
| 20260901165728 | 86 | 99 | 0.0 | 3.0 | 0.00 | 0.00 | 0.00 | 66 | 1039.8 |
| 20260901165223 | 85 | 180 | 0.0 | 2.0 | 0.00 | 0.00 | 0.00 | 69 | 1039.9 |
| 20260901164720 | 85 | 180 | 0.0 | 3.0 | 0.00 | 0.00 | 0.00 | 70 | 1039.8 |
| 20260901164215 | 85 | 188 | 0.0 | 0.0 | 0.00 | 0.00 | 0.00 | 69 | 1039.9 |
| 20260901163710 | 85 | 188 | 0.0 | 2.0 | 0.00 | 0.00 | 0.00 | 70 | 1039.9 |
| 20260901163209 | 85 | 188 | 1.0 | 3.0 | 0.00 | 0.00 | 0.00 | 70 | 1039.9 |
| 20260901162705 | 85 | 180 | 0.0 | 1.0 | 0.00 | 0.00 | 0.00 | 72 | 1040.0 |
| 20260901162204 | 85 | 180 | 0.0 | 0.0 | 0.00 | 0.00 | 0.00 | 73 | 1039.9 |
| 20260901161702 | 85 | 90 | 0.0 | 0.0 | 0.00 | 0.00 | 0.00 | 72 | 1040.1 |
| 20260901161157 | 85 | 60 | 0.0 | 1.0 | 0.00 | 0.00 | 0.00 | 74 | 1040.2 |
| 20260901160654 | 84 | 97 | 0.0 | 2.0 | 0.00 | 0.00 | 0.00 | 73 | 1040.2 |
| 20260901160148 | 83 | 180 | 0.0 | 1.0 | 0.00 | 0.00 | 0.00 | 75 | 1040.1 |
| 20260901155648 | 83 | 173 | 0.0 | 0.0 | 0.00 | 0.00 | 0.00 | 75 | 1040.3 |
| 20260901155143 | 83 | 57 | 0.0 | 0.0 | 0.00 | 0.00 | 0.00 | 76 | 1040.3 |
| 20260901154638 | 83 | 57 | 0.0 | 0.0 | 0.00 | 0.00 | 0.00 | 76 | 1040.2 |
| 20260901154132 | 83 | 157 | 0.0 | 0.0 | 0.00 | 0.00 | 0.00 | 77 | 1040.3 |
| 20260901153627 | 83 | 23 | 0.0 | 1.0 | 0.00 | 0.00 | 0.00 | 77 | 1040.7 |
| 20260901153121 | 83 | 8 | 2.0 | 3.0 | 0.00 | 0.00 | 0.00 | 76 | 1040.5 |
| 20260901152617 | 83 | 24 | 2.0 | 3.0 | 0.00 | 0.00 | 0.00 | 76 | 1040.3 |
| 20260901152115 | 83 | 7 | 0.0 | 2.0 | 0.00 | 0.00 | 0.00 | 77 | 1040.5 |
| 20260901151611 | 83 | 352 | 2.0 | 2.0 | 0.00 | 0.00 | 0.00 | 77 | 1040.5 |
| 20260901151110 | 82 | 345 | 1.0 | 3.0 | 0.00 | 0.00 | 0.00 | 77 | 1040.5 |
| 20260901150609 | 82 | 345 | 0.0 | 1.0 | 0.00 | 0.00 | 0.00 | 79 | 1040.5 |
| 20260901145600 | 81 | 12 | 1.0 | 3.0 | 0.00 | 0.00 | 0.00 | 80 | 1040.5 |
| 20260901145054 | 80 | 82 | 0.0 | 1.0 | 0.00 | 0.00 | 0.00 | 80 | 1040.6 |
| 20260901144550 | 79 | 0 | 0.0 | 2.0 | 0.00 | 0.00 | 0.00 | 83 | 1040.5 |
| 20260901144045 | 78 | 157 | 0.0 | 1.0 | 0.00 | 0.00 | 0.00 | 84 | 1040.6 |
| 20260901143540 | 78 | 6 | 0.0 | 2.0 | 0.00 | 0.00 | 0.00 | 85 | 1040.5 |
| 20260901143032 | 78 | 60 | 2.0 | 3.0 | 0.00 | 0.00 | 0.00 | 85 | 1040.6 |
| 20260901142532 | 78 | 172 | 0.0 | 0.0 | 0.00 | 0.00 | 0.00 | 86 | 1040.6 |
| 20260901142027 | 77 | 172 | 0.0 | 0.0 | 0.00 | 0.00 | 0.00 | 87 | 1040.5 |
| 20260901141526 | 77 | 172 | 0.0 | 1.0 | 0.00 | 0.00 | 0.00 | 87 | 1040.7 |
| 20260901141021 | 77 | 154 | 0.0 | 0.0 | 0.00 | 0.00 | 0.00 | 88 | 1040.5 |
| 20260901140520 | 77 | 154 | 0.0 | 0.0 | 0.00 | 0.00 | 0.00 | 88 | 1040.3 |
| 20260901140015 | 76 | 154 | 0.0 | 0.0 | 0.00 | 0.00 | 0.00 | 88 | 1040.3 |
| 20260901135508 | 76 | 154 | 0.0 | 0.0 | 0.00 | 0.00 | 0.00 | 88 | 1040.3 |
| 20260901135004 | 75 | 165 | 0.0 | 0.0 | 0.00 | 0.00 | 0.00 | 89 | 1040.6 |
| 20260901134500 | 75 | 165 | 0.0 | 1.0 | 0.00 | 0.00 | 0.00 | 90 | 1040.3 |
| 20260901133954 | 75 | 172 | 0.0 | 0.0 | 0.00 | 0.00 | 0.00 | 90 | 1040.6 |
| 20260901133453 | 75 | 180 | 0.0 | 1.0 | 0.00 | 0.00 | 0.00 | 90 | 1040.3 |
| 20260901132952 | 75 | 15 | 0.0 | 0.0 | 0.00 | 0.00 | 0.00 | 90 | 1040.5 |
| 20260901132452 | 75 | 15 | 0.0 | 0.0 | 0.00 | 0.00 | 0.00 | 90 | 1040.2 |
| 20260901131951 | 74 | 15 | 0.0 | 0.0 | 0.00 | 0.00 | 0.00 | 90 | 1040.1 |
| 20260901131450 | 74 | 15 | 0.0 | 0.0 | 0.00 | 0.00 | 0.00 | 90 | 1040.2 |
| 20260901113725 | 71 | 8 | 0.0 | 0.0 | 0.00 | 0.00 | 0.00 | 95 | 1039.1 |
| 20260901113221 | 71 | 8 | 0.0 | 0.0 | 0.00 | 0.00 | 0.00 | 95 | 1039.1 |
| 20260901112720 | 71 | 8 | 0.0 | 0.0 | 0.00 | 0.00 | 0.00 | 95 | 1039.1 |
| 20260901112215 | 70 | 8 | 0.0 | 0.0 | 0.00 | 0.00 | 0.00 | 95 | 1039.1 |
| 20260901111714 | 70 | 8 | 0.0 | 1.0 | 0.00 | 0.00 | 0.00 | 96 | 1039.0 |
| 20260901111208 | 70 | 0 | 0.0 | 0.0 | 0.00 | 0.00 | 0.00 | 95 | 1038.9 |
| 20260901110702 | 71 | 9 | 0.0 | 2.0 | 0.00 | 0.00 | 0.00 | 95 | 1038.9 |
| 20260901110157 | 71 | 140 | 0.0 | 0.0 | 0.00 | 0.00 | 0.00 | 95 | 1038.6 |
| 20260901105654 | 71 | 140 | 0.0 | 0.0 | 0.00 | 0.00 | 0.00 | 95 | 1038.6 |
| 20260901105154 | 71 | 140 | 0.0 | 0.0 | 0.00 | 0.00 | 0.00 | 96 | 1038.8 |
| 20260901104650 | 71 | 140 | 0.0 | 0.0 | 0.00 | 0.00 | 0.00 | 96 | 1038.8 |
| 20260901104145 | 71 | 140 | 0.0 | 0.0 | 0.00 | 0.00 | 0.00 | 95 | 1038.7 |
| 20260901103644 | 71 | 172 | 0.0 | 0.0 | 0.00 | 0.00 | 0.00 | 95 | 1038.6 |
| 20260901103140 | 71 | 172 | 0.0 | 0.0 | 0.00 | 0.00 | 0.00 | 95 | 1038.4 |
| 20260901102640 | 71 | 172 | 0.0 | 0.0 | 0.00 | 0.00 | 0.00 | 94 | 1038.4 |
| 20260901102139 | 71 | 172 | 0.0 | 0.0 | 0.00 | 0.00 | 0.00 | 95 | 1038.2 |
| 20260901101636 | 71 | 172 | 0.0 | 1.0 | 0.00 | 0.00 | 0.00 | 94 | 1038.4 |
| 20260901101135 | 71 | 114 | 0.0 | 0.0 | 0.00 | 0.00 | 0.00 | 94 | 1038.2 |
| 20260901100629 | 71 | 60 | 0.0 | 0.0 | 0.00 | 0.00 | 0.00 | 94 | 1038.2 |
| 20260901100124 | 71 | 60 | 0.0 | 0.0 | 0.00 | 0.00 | 0.00 | 93 | 1038.0 |
| 20260901095622 | 71 | 60 | 0.0 | 0.0 | 0.00 | 0.00 | 0.00 | 93 | 1038.2 |
| 20260901095119 | 71 | 60 | 0.0 | 0.0 | 0.00 | 0.00 | 0.00 | 93 | 1038.0 |
| 20260901094614 | 72 | 29 | 0.0 | 1.0 | 0.00 | 0.00 | 0.00 | 92 | 1038.2 |
| 20260901094109 | 72 | 7 | 0.0 | 0.0 | 0.00 | 0.00 | 0.00 | 93 | 1038.0 |
| 20260901093604 | 72 | 7 | 0.0 | 0.0 | 0.00 | 0.00 | 0.00 | 93 | 1038.4 |
| 20260901093058 | 71 | 7 | 0.0 | 0.0 | 0.00 | 0.00 | 0.00 | 93 | 1038.0 |
| 20260901092554 | 71 | 7 | 0.0 | 1.0 | 0.00 | 0.00 | 0.00 | 93 | 1038.1 |
| 20260901092050 | 72 | 352 | 0.0 | 0.0 | 0.00 | 0.00 | 0.00 | 93 | 1038.1 |
| 20260901091545 | 71 | 352 | 0.0 | 0.0 | 0.00 | 0.00 | 0.00 | 92 | 1038.1 |
| 20260901091040 | 71 | 352 | 0.0 | 1.0 | 0.00 | 0.00 | 0.00 | 92 | 1038.0 |
| 20260901090539 | 72 | 15 | 0.0 | 2.0 | 0.00 | 0.00 | 0.00 | 91 | 1038.0 |
| 20260901090035 | 73 | 172 | 0.0 | 0.0 | 0.00 | 0.00 | 0.00 | 90 | 1038.0 |
| 20260901085530 | 73 | 180 | 1.0 | 1.0 | 0.00 | 0.00 | 0.00 | 90 | 1038.1 |
| 20260901085026 | 73 | 345 | 0.0 | 0.0 | 0.00 | 0.00 | 0.00 | 90 | 1037.8 |
| 20260901084522 | 73 | 345 | 0.0 | 0.0 | 0.00 | 0.00 | 0.00 | 90 | 1038.2 |
| 20260901084018 | 73 | 345 | 0.0 | 0.0 | 0.00 | 0.00 | 0.00 | 89 | 1037.9 |
| 20260901083513 | 73 | 344 | 2.0 | 2.0 | 0.00 | 0.00 | 0.00 | 89 | 1038.0 |
| 20260901083011 | 73 | 325 | 1.0 | 2.0 | 0.00 | 0.00 | 0.00 | 89 | 1037.9 |
| 20260901082506 | 73 | 339 | 2.0 | 3.0 | 0.00 | 0.00 | 0.00 | 90 | 1038.2 |
| 20260901082001 | 72 | 339 | 0.0 | 2.0 | 0.00 | 0.00 | 0.00 | 91 | 1038.1 |
| 20260901081456 | 72 | 351 | 2.0 | 2.0 | 0.00 | 0.00 | 0.00 | 92 | 1038.2 |
| 20260901080951 | 72 | 341 | 2.0 | 3.0 | 0.00 | 0.00 | 0.00 | 91 | 1038.2 |
| 20260901080450 | 72 | 334 | 1.0 | 2.0 | 0.00 | 0.00 | 0.00 | 91 | 1038.2 |
| 20260901075944 | 73 | 340 | 0.0 | 2.0 | 0.00 | 0.00 | 0.00 | 90 | 1038.4 |
| 20260901075439 | 73 | 334 | 1.0 | 2.0 | 0.00 | 0.00 | 0.00 | 90 | 1038.2 |
| 20260901074934 | 73 | 342 | 0.0 | 1.0 | 0.00 | 0.00 | 0.00 | 90 | 1038.5 |
| 20260901074433 | 73 | 345 | 0.0 | 1.0 | 0.00 | 0.00 | 0.00 | 91 | 1038.1 |
| 20260901073929 | 73 | 352 | 0.0 | 0.0 | 0.00 | 0.00 | 0.00 | 91 | 1038.4 |
| 20260901073425 | 73 | 352 | 0.0 | 1.0 | 0.00 | 0.00 | 0.00 | 90 | 1038.4 |
| 20260901072920 | 73 | 0 | 0.0 | 0.0 | 0.00 | 0.00 | 0.00 | 89 | 1038.4 |
| 20260901072415 | 73 | 348 | 0.0 | 1.0 | 0.00 | 0.00 | 0.00 | 91 | 1038.2 |
| 20260901071910 | 72 | 334 | 1.0 | 2.0 | 0.00 | 0.00 | 0.00 | 92 | 1038.2 |
| 20260901071409 | 73 | 340 | 1.0 | 2.0 | 0.00 | 0.00 | 0.00 | 92 | 1038.4 |
| 20260901070908 | 74 | 355 | 1.0 | 2.0 | 0.00 | 0.00 | 0.00 | 90 | 1038.2 |
| 20260901070404 | 74 | 352 | 0.0 | 1.0 | 0.00 | 0.00 | 0.00 | 89 | 1038.6 |
| 20260901065902 | 74 | 0 | 0.0 | 0.0 | 0.00 | 0.00 | 0.00 | 89 | 1038.2 |